Location: Newark
(42.7133°N, 87.7910°W)
Time: 02:37:15
(UTC+00:00)

Vanguard 1 - Pass Details

Date: 22 October 2019
Orbit: 652 x 3831 km, 34.2° (Epoch: 19 November)

Event Time Altitude Azimuth Distance (km) Brightness Sun altitude
Rises 05:57:37 0° 277° (W) 5,663 13.9 -57.9°
Enters shadow 05:57:53 - 276° (W) 5,612 13.9 -57.9°
Exits shadow 06:37:21 - 149° (SSE) 7,412 14.3 -55.5°
Sets 06:40:32 0° 145° (SE) 7,928 14.5 -55.3°
